User: anonymous   Login
Location: Unspecified
(0.0000°N, 0.0000°E)
Time: 16:12:10
(UTC+00:00)
Language:

USA 93 - Orbit

View from above orbital plane
View from above orbital plane
View from above satellite
View from above satellite

Ground track
Ground track

The orbit data is extracted from the following two-line orbital elements,

1 22719U 93046A   24166.43154182 -.00000265  00000-0  00000-0 0  9994
2 22719  13.2668  19.3217 0004624  80.4065 120.6446  0.99054571 17934
Epoch (UTC): 14 June 2024 10:21:25
Eccentricity: 0.0004624
inclination: 13.2668°
perigee height: 36111 km
apogee height: 36150 km
right ascension of ascending node: 19.3217°
argument of perigee: 80.4065°
revolutions per day: 0.99054571
mean anomaly at epoch: 120.6446°
orbit number at epoch: 1793

The dashed part of the orbit path shows where the satellite is in the earth's shadow,  

DLR